Hourly Data Report for October 28, 2016

All times are specified in Local Standard Time (LST). Add 1 hour to adjust for Daylight Saving Time where and when it is observed.

GRISE FIORD CLIMATE
NUNAVUT

76°25'22.040" N
82°54'08.020" W
44.50 m
2402351
71971
NGC

Download Data

Hourly Data (October 2016)
Hourly Data Report for October 28, 2016
Temp Definition
°C
Dew Point Temp Definition
°C
Rel Hum Definition
%
Wind Dir Definition
10's deg

Wind Spd Definition
km/h
Visibility Definition
km
Stn Press Definition
kPa
Hmdx Definition


Wind Chill Definition


Weather Definition


TIME
00:00 -7.1 -14.3 56 8 17   101.69   -14 LegendNANA
01:00 -8.2 -15.8 54 10 16   101.72   -15 LegendNANA
02:00 -10.0 -16.3 60 13 6   101.80   -14 LegendNANA
03:00 -9.9 -16.7 58 30 2   101.82   -11 LegendNANA
04:00 -13.5 -18.9 63 13 8   101.85   -19 LegendNANA
05:00 -13.6 -19.1 63 4 7   101.87   -18 LegendNANA
06:00 -13.2 -18.1 67 4 4   101.92   -16 LegendNANA
07:00 -13.3 -17.6 70 9 3   101.96   -15 LegendNANA
08:00 -16.8 -19.9 77 35 4   102.00   -20 LegendNANA
09:00 -16.0 -19.0 78 3 9   102.02   -22 LegendNANA
10:00 -16.2 -19.6 75 11 3   102.04   -18 LegendNANA
11:00 -14.8 -17.7 79 10 2   102.04   -16 LegendNANA
12:00 -16.0 -18.6 81 14 6   102.04   -20 LegendNANA
13:00 -17.4 -20.5 77 1 6   102.07   -22 LegendNANA
14:00 -16.4 -20.3 72 8 1   102.06   -17 LegendNANA
15:00 -17.6 -20.6 78 36 6   102.06   -22 LegendNANA
16:00 -15.9 -17.6 86 5 2   102.09   -17 LegendNANA
17:00 -17.6 -20.5 78 8 3   102.10   -20 LegendNANA
18:00 -17.0 -20.4 75 4 11   102.12   -24 LegendNANA
19:00 -17.3 -20.8 74 36 1   102.14   -18 LegendNANA
20:00 -17.2 -21.8 67 4 3   102.12   -20 LegendNANA
21:00 -17.0 -21.1 71 36 4   102.12   -20 LegendNANA
22:00 -17.7 -22.9 64 4 6   102.13   -22 LegendNANA
23:00 -17.2 -21.7 68 4 6   102.10   -22 LegendNANA

Notes on Data Quality.

Legend

  • E = Estimated
  • M = Missing
  • NA = Not Available
  • ‡ = Partner data that is not subject to review by the National Climate Archives
Date modified: